Meteo Giornale » Osservazioni meteo Italia » Venezia-Tessera

ore: 02:50 - Osservazioni Meteo Venezia-Tessera
Lat. 45° 30' N Lon. 12° 20' E Alt. 2 metri s.l.m.

foschia Europe/Rome

1 °C

Foschia

Temp. 24 Ore

-1 °C

10 °C

Nord

1.8 Km/h

Dew point 0 °C

Umidità 93 %

Visibilità  2 Km

Il sole sorge alle ore 07:24

Il sole tramonta alle ore 16:32

Data e Ora Cielo e Fenomeni T °C DP °C Um. % Pres. hPa Vis. km Vento km/h
Oggi h: 02:50 foschia Foschia 1 0 93 1023 2 N 1.8
Oggi h: 02:20 foschia Foschia 1 1 100 1023 2 N 5.5
Oggi h: 01:50 nebbia NebbiaParziale 1 0 93 1023 2 N 3.7
Oggi h: 01:20 foschia Foschia 2 2 100 1023 3 N 5.5
Oggi h: 00:50 foschia Foschia 3 2 93 1023 3 N/NO 7.4
Ieri h: 23:50 foschia Foschia 3 3 100 1024 4 N/NO 7.4
Ieri h: 23:20 foschia Foschia 2 2 100 1024 5 N 5.5
Ieri h: 22:50 foschia Foschia 3 2 93 1024 5 N 3.7
Ieri h: 21:20 sereno Sereno 4 3 93 1024 7 N 5.5
Ieri h: 20:50 sereno Sereno 4 3 93 1024 7 N 5.5
Ieri h: 20:20 sereno Sereno 5 4 93 1024 7 N 3.7
Ieri h: 19:50 sereno Sereno 5 4 93 1024 7 N 3.7
Ieri h: 19:20 sereno Sereno 5 4 93 1024 7 N 5.5
Ieri h: 18:50 sereno Sereno 6 4 86 1024 7 N 5.5
Ieri h: 18:20 sereno Sereno 6 4 86 1024 7 N 5.5
Ieri h: 17:50 sereno Sereno 6 4 86 1024 8 N 5.5
Ieri h: 16:50 sereno Sereno 7 5 87 1023 8 N 5.5
Ieri h: 15:50 sereno Sereno 8 5 81 1023 8 S/SO 9.3
Ieri h: 15:20 sereno Sereno 9 5 75 1023 8 S/SO 7.4
Ieri h: 14:50 sereno Sereno 10 4 66 1023 9 S/SO 9.3
Ieri h: 14:20 sereno Sereno 10 3 61 1024 10 S/SO 7.4
Ieri h: 13:50 sereno Sereno 9 2 61 1024 10 S/SO 9.3
Ieri h: 13:20 sereno Sereno 9 3 66 1024 10 SO 7.4
Ieri h: 12:50 sereno Sereno 9 2 61 1025 10 N 5.5
Ieri h: 12:20 sereno Sereno 8 2 65 1025 10 N 3.7
Ieri h: 11:50 sereno Sereno 8 2 65 1025 10 N 3.7
Ieri h: 11:20 sereno Sereno 9 2 61 1025 10 N 1.8
Ieri h: 10:50 sereno Sereno 7 2 70 1025 10 N 3.7
Ieri h: 10:20 sereno Sereno 7 1 65 1025 10 N 5.5
Ieri h: 09:50 sereno Sereno 5 1 75 1025 10 N 3.7
Ieri h: 09:20 sereno Sereno 3 2 93 1025 10 N 3.7
Ieri h: 08:50 sereno Sereno 2 1 93 1025 10 N 5.5
Ieri h: 08:20 sereno Sereno 1 -0 93 1025 10 N 5.5
Ieri h: 07:50 sereno Sereno 0 -1 92 1025 10 N 5.5
Ieri h: 07:20 sereno Sereno -1 -1 100 1025 10 N 5.5
Ieri h: 06:50 sereno Sereno 0 -0 100 1025 10 N 5.5
Ieri h: 06:20 sereno Sereno 0 -0 100 1025 8 N 5.5
Ieri h: 05:50 sereno Sereno 0 -0 100 1025 8 N 5.5
Ieri h: 04:50 sereno Sereno 1 0 93 1025 8 N 7.4
Ieri h: 04:20 sereno Sereno 1 1 100 1025 10 N 7.4
Ieri h: 03:50 sereno Sereno 1 1 100 1025 7 N 5.5
Ieri h: 03:20 sereno Sereno 1 0 93 1025 7 N 5.5
Ieri h: 02:50 sereno Sereno 1 0 93 1025 6 N 5.5